When you browse on this site, cookies collect data to enhance your experience and personalize the content and advertising you see.
Visit our Privacy Policy to learn more. By continuing to use the site, you agree to this use of cookies and data.
  • In Hungary
  • List of Countries
  • For 7 days
  • Water Temperature
  • Satellite Maps
  • Weather Map
  • News
  • Weather Widgets
  • user-avatar
    Login

    Hourly Weather Tylawa

    Today, 15 December, Saturday

    Time Temperature Precipitation Wind Pressure Humidity
    00:00 -5°C° 0 mm 3 mps 732 mmHg 87%
    01:00 -5°C° 0 mm 3 mps 732 mmHg 84%
    02:00 -5°C° 0 mm 3 mps 732 mmHg 83%
    03:00 -5°C° 0 mm 3 mps 732 mmHg 82%
    04:00 -5°C° 0 mm 3 mps 732 mmHg 81%
    05:00 -5°C° 0 mm 4 mps 732 mmHg 81%
    06:00 -5°C° 0 mm 4 mps 732 mmHg 80%
    07:00 -5°C° 0 mm 4 mps 732 mmHg 79%
    08:00 -5°C° 0 mm 4 mps 732 mmHg 77%
    09:00 -4°C° 0 mm 4 mps 732 mmHg 75%
    10:00 -5°C° 0 mm 5 mps 732 mmHg 73%
    11:00 -5°C° 0 mm 5 mps 731 mmHg 72%
    12:00 -4°C° 0 mm 5 mps 731 mmHg 71%
    13:00 -4°C° 0 mm 5 mps 731 mmHg 71%
    14:00 -4°C° 0.1 mm 4 mps 731 mmHg 74%
    15:00 -4°C° 0.1 mm 4 mps 731 mmHg 78%
    16:00 -4°C° 0.1 mm 4 mps 731 mmHg 82%
    17:00 -4°C° 0.4 mm 4 mps 730 mmHg 84%
    18:00 -4°C° 0.4 mm 4 mps 730 mmHg 86%
    19:00 -5°C° 0.4 mm 4 mps 730 mmHg 88%
    20:00 -5°C° 0.4 mm 4 mps 730 mmHg 89%
    21:00 -5°C° 0.4 mm 3 mps 730 mmHg 89%
    22:00 -5°C° 0.4 mm 3 mps 729 mmHg 90%
    23:00 -5°C° 0.3 mm 3 mps 729 mmHg 90%

    Tomorrow, 16 December, Sunday

    Time Temperature Precipitation Wind Pressure Humidity
    00:00 -4°C° 0.3 mm 2 mps 729 mmHg 91%
    01:00 -4°C° 0.3 mm 2 mps 729 mmHg 91%
    02:00 -4°C° 0.3 mm 2 mps 728 mmHg 91%
    03:00 -3°C° 0.3 mm 2 mps 728 mmHg 92%
    04:00 -3°C° 0.3 mm 2 mps 727 mmHg 92%
    05:00 -1°C° 0.3 mm 1 mps 727 mmHg 93%
    06:00 -1°C° 0.3 mm 1 mps 727 mmHg 93%
    07:00 -1°C° 0.3 mm 1 mps 727 mmHg 94%
    08:00 -1°C° 0.2 mm 1 mps 728 mmHg 92%
    09:00 0°C° 0.2 mm 1 mps 728 mmHg 91%
    10:00 0°C° 0.2 mm 1 mps 728 mmHg 89%
    11:00 +1°C° 0.1 mm 1 mps 728 mmHg 89%
    12:00 +1°C° 0.1 mm 1 mps 728 mmHg 90%
    13:00 +1°C° 0.1 mm 1 mps 728 mmHg 90%
    14:00 +1°C° 0.1 mm 1 mps 728 mmHg 91%
    15:00 +1°C° 0.1 mm 1 mps 728 mmHg 93%
    16:00 0°C° 0.1 mm 1 mps 728 mmHg 94%
    17:00 0°C° 0 mm 1 mps 728 mmHg 95%
    18:00 -2°C° 0 mm 2 mps 729 mmHg 95%
    19:00 -3°C° 0 mm 2 mps 729 mmHg 95%
    20:00 -3°C° 0 mm 2 mps 729 mmHg 94%
    21:00 -3°C° 0 mm 2 mps 729 mmHg 94%
    22:00 -3°C° 0 mm 2 mps 730 mmHg 93%
    23:00 -4°C° 0 mm 3 mps 730 mmHg 93%

    Day after tomorrow, 17 December, Monday

    Time Temperature Precipitation Wind Pressure Humidity
    00:00 -4°C° 0 mm 3 mps 730 mmHg 92%
    01:00 -5°C° 0 mm 3 mps 730 mmHg 92%
    02:00 -5°C° 0 mm 3 mps 730 mmHg 92%
    03:00 -4°C° 0 mm 2 mps 730 mmHg 92%
    04:00 -4°C° 0 mm 2 mps 729 mmHg 93%
    05:00 -4°C° 0 mm 2 mps 730 mmHg 93%
    06:00 -5°C° 0 mm 2 mps 730 mmHg 92%
    07:00 -3°C° 0 mm 1 mps 730 mmHg 92%
    08:00 -2°C° 0 mm 1 mps 730 mmHg 90%
    09:00 -1°C° 0 mm 1 mps 730 mmHg 87%
    10:00 -1°C° 0 mm 1 mps 731 mmHg 85%
    11:00 -1°C° 0 mm 0 mps 731 mmHg 82%
    12:00 -1°C° 0 mm 0 mps 730 mmHg 80%
    13:00 0°C° 0 mm 0 mps 730 mmHg 77%
    14:00 -1°C° 0 mm 0 mps 731 mmHg 80%
    15:00 -2°C° 0 mm 0 mps 731 mmHg 83%
    16:00 -1°C° 0 mm 1 mps 731 mmHg 85%
    17:00 -1°C° 0 mm 1 mps 732 mmHg 85%
    18:00 -1°C° 0 mm 1 mps 732 mmHg 85%
    19:00 -2°C° 0 mm 1 mps 732 mmHg 84%
    20:00 -2°C° 0 mm 1 mps 733 mmHg 85%
    21:00 -2°C° 0 mm 1 mps 733 mmHg 85%
    22:00 -2°C° 0 mm 1 mps 733 mmHg 86%
    23:00 -2°C° 0 mm 1 mps 733 mmHg 87%

    18 December, Tuesday

    Time Temperature Precipitation Wind Pressure Humidity
    00:00 -2°C° 0 mm 1 mps 733 mmHg 87%
    01:00 -2°C° 0 mm 1 mps 733 mmHg 88%
    02:00 -2°C° 0 mm 1 mps 733 mmHg 89%
    03:00 -2°C° 0 mm 1 mps 733 mmHg 89%
    04:00 -2°C° 0 mm 1 mps 733 mmHg 90%
    05:00 -2°C° 0 mm 1 mps 734 mmHg 90%
    06:00 -3°C° 0 mm 1 mps 734 mmHg 91%
    07:00 -3°C° 0 mm 1 mps 734 mmHg 91%
    08:00 -2°C° 0 mm 1 mps 734 mmHg 89%
    09:00 -1°C° 0 mm 1 mps 734 mmHg 87%
    10:00 0°C° 0 mm 1 mps 735 mmHg 85%
    11:00 0°C° 0 mm 1 mps 734 mmHg 84%
    12:00 +1°C° 0 mm 1 mps 734 mmHg 83%
    13:00 +1°C° 0 mm 1 mps 734 mmHg 82%
    14:00 0°C° 0 mm 1 mps 734 mmHg 85%
    15:00 -1°C° 0 mm 1 mps 734 mmHg 89%
    16:00 -2°C° 0 mm 1 mps 734 mmHg 92%
    17:00 -2°C° 0 mm 1 mps 734 mmHg 93%
    18:00 -2°C° 0 mm 1 mps 734 mmHg 93%
    19:00 -3°C° 0 mm 1 mps 734 mmHg 93%
    20:00 -3°C° 0 mm 1 mps 734 mmHg 94%
    21:00 -3°C° 0 mm 1 mps 734 mmHg 94%
    22:00 -3°C° 0 mm 1 mps 734 mmHg 94%
    23:00 -3°C° 0 mm 1 mps 734 mmHg 94%

    19 December, Wednesday

    Time Temperature Precipitation Wind Pressure Humidity
    00:00 -3°C° 0 mm 1 mps 734 mmHg 94%
    01:00 -3°C° 0 mm 1 mps 734 mmHg 94%
    02:00 -3°C° 0 mm 1 mps 734 mmHg 94%
    03:00 -3°C° 0 mm 1 mps 734 mmHg 94%
    04:00 -3°C° 0 mm 1 mps 734 mmHg 95%
    05:00 -3°C° 0 mm 1 mps 734 mmHg 94%
    06:00 -3°C° 0 mm 1 mps 734 mmHg 94%
    07:00 -4°C° 0 mm 1 mps 734 mmHg 94%
    08:00 -5°C° 0 mm 2 mps 734 mmHg 92%
    09:00 -5°C° 0 mm 2 mps 734 mmHg 90%
    10:00 -4°C° 0 mm 2 mps 735 mmHg 88%
    11:00 -4°C° 0 mm 2 mps 734 mmHg 87%
    12:00 -3°C° 0 mm 2 mps 734 mmHg 85%
    13:00 -3°C° 0 mm 2 mps 734 mmHg 84%
    14:00 -4°C° 0 mm 2 mps 734 mmHg 86%
    15:00 -4°C° 0 mm 2 mps 734 mmHg 88%
    16:00 -5°C° 0 mm 2 mps 734 mmHg 90%
    17:00 -5°C° 0 mm 2 mps 734 mmHg 91%
    18:00 -5°C° 0 mm 2 mps 734 mmHg 91%
    19:00 -5°C° 0 mm 2 mps 734 mmHg 92%
    20:00 -6°C° 0 mm 2 mps 734 mmHg 92%
    21:00 -4°C° 0 mm 1 mps 734 mmHg 93%
    22:00 -4°C° 0 mm 1 mps 734 mmHg 94%
    23:00 -4°C° 0 mm 1 mps 734 mmHg 94%

    20 December, Thursday

    Time Temperature Precipitation Wind Pressure Humidity
    00:00 -4°C° 0 mm 1 mps 733 mmHg 94%
    01:00 -6°C° 0 mm 1 mps 733 mmHg 93%
    02:00 -6°C° 0 mm 1 mps 733 mmHg 94%
    03:00 -6°C° 0 mm 1 mps 733 mmHg 94%
    04:00 -6°C° 0 mm 1 mps 733 mmHg 94%
    05:00 -6°C° 0 mm 1 mps 733 mmHg 94%
    06:00 -6°C° 0 mm 1 mps 733 mmHg 94%
    07:00 -6°C° 0 mm 1 mps 733 mmHg 94%
    08:00 -4°C° 0 mm 1 mps 734 mmHg 92%
    09:00 -4°C° 0 mm 1 mps 734 mmHg 89%
    10:00 -3°C° 0 mm 1 mps 734 mmHg 87%
    11:00 -2°C° 0 mm 1 mps 734 mmHg 86%
    12:00 -2°C° 0 mm 1 mps 733 mmHg 85%
    13:00 -1°C° 0 mm 1 mps 733 mmHg 83%
    14:00 -2°C° 0 mm 1 mps 733 mmHg 86%
    15:00 -3°C° 0 mm 1 mps 733 mmHg 89%
    16:00 -3°C° 0 mm 1 mps 733 mmHg 92%
    17:00 -4°C° 0 mm 1 mps 733 mmHg 93%
    18:00 -4°C° 0 mm 1 mps 734 mmHg 93%
    19:00 -4°C° 0 mm 1 mps 734 mmHg 94%
    20:00 -4°C° 0 mm 1 mps 734 mmHg 95%
    21:00 -6°C° 0 mm 1 mps 734 mmHg 95%
    22:00 -6°C° 0 mm 1 mps 734 mmHg 95%
    23:00 -6°C° 0 mm 1 mps 734 mmHg 95%
    Show more